Regional Weather Roundup
Issued by NWS State College, PA

Home | Current Version | Previous Version | Graphics & Text | Print | Product List | Glossary Off
Versions: 1 2 3 4 5 6 7 8 9 10 11 12 13 14 15 16 17 18 19 20 21 22 23 24 25 26 27 28 29 30 31 32 33 34 35 36 37 38 39 40 41 42 43 44 45 46 47 48 49 50

000
ASUS41 KCTP 291703
RWRCTP

REGIONAL WEATHER ROUNDUP
NATIONAL WEATHER SERVICE STATE COLLEGE PA
100 PM EDT THU SEP 29 2016

Note: "fair" indicates few or no clouds below 12,000 feet with no
significant weather and/or obstructions to visibility.

* = STATION THAT DOES NOT REPORT PRECIPITATION /E.G. RAIN...SNOW...ETC/
    THUNDER OR FOG.

PAZ002>004-007>009-013>016-020>023-029>032-291800-
WESTERN PENNSYLVANIA

CITY           SKY/WX    TMP DP  RH WIND       PRES   REMARKS
ERIE           CLOUDY    63  60  90 NE9       30.19F
MEADVILLE      LGT RAIN  61  55  81 E9        30.17S
FRANKLIN*        N/A     59  54  82 E18G24    30.18S
NEW CASTLE     LGT RAIN  61  59  93 E5        30.14F
BEAVER COUNTY  CLOUDY    61  57  88 CALM      30.12F
BUTLER*        CLOUDY    63  57  82 E17       30.15F
PITTSBURGH INT CLOUDY    60  60 100 E10G16    30.10F
PITTSBURGH     CLOUDY    65  58  78 E10       30.09F
INDIANA*       CLOUDY    64  57  77 E18G28    30.18S
LATROBE        PTSUNNY   68  59  73 E15G25    30.12F
WASHINGTON CO* CLOUDY    64  57  77 NE9       30.09F
$$

PAZ004>006-010>012-017>019-024>028-033>037-041-042-045-046-049>053-291800-
CENTRAL PENNSYLVANIA

CITY           SKY/WX    TMP DP  RH WIND       PRES   REMARKS
BRADFORD       CLOUDY    58  57  97 SE12G20   30.24S
DUBOIS         CLOUDY    58  54  86 E14G23    30.19F
CLEARFIELD     CLOUDY    57  57 100 E8        30.24S FOG
JOHNSTOWN      LGT RAIN  58  58 100 E12G22    30.17R FOG
ALTOONA        RAIN      59  58  96 E14       30.20S FOG
STATE COLLEGE  CLOUDY    57  55  94 E10       30.25S
WILLIAMSPORT   CLOUDY    60  57  89 E6        30.29R
SELINSGROVE    CLOUDY    61  58  90 E6        30.28S
FT INDIANTOWN  CLOUDY    57  57  99 E12G18    30.28S
CAPITAL CITY   CLOUDY    62  58  86 E16G28    30.24S
HARRISBURG     CLOUDY    62  60  93 E18       30.23F
YORK           LGT RAIN  63  63 100 E15G25    30.22S
$$

PAZ038>040-043-044-047-048-054-055-060>062-067>071-291800-
EASTERN PENNSYLVANIA

CITY           SKY/WX    TMP DP  RH WIND       PRES   REMARKS
SCRANTON       CLOUDY    59  53  80 NE10      30.33S
MOUNT POCONO   CLOUDY    52  50  93 E14       30.35S
ALLENTOWN      CLOUDY    61  53  75 E15G22    30.33S
QUAKERTOWN*    CLOUDY    57  55  94 E7        30.33S
READING        CLOUDY    60  55  83 E12G20    30.29R
LANCASTER      LGT RAIN  63  61  93 E18G32    30.25R
COATESVILLE    CLOUDY    63  61  94 E23G36    30.27S
POTTSTOWN      CLOUDY    59  58  96 NE13G20   30.31F FOG
BLUE BELL      CLOUDY    59  59 100 E13       30.30R
DOYLESTOWN     LGT RAIN  60  59  96 VRB5      30.33R
WILLOW GROVE   NOT AVBL
NORTH PHILA    CLOUDY    63  61  93 E20G32    30.33R FOG
PHILADELPHIA   LGT RAIN  64  61  90 E22G29    30.29R
$$




USA.gov is the U.S. government's official web portal to all federal, state and local government web resources and services.